Location: downtown San Diego
(32.7310°N, 117.1990°W)
Time: 09:25:04
(UTC-07:00)

OAO 2 Rocket - Pass Details

Date: 14 June 2018
Orbit: 676 x 746 km, 35.0° (Epoch: 20 June)

Event Time Altitude Azimuth Distance (km) Brightness Sun altitude
Rises 21:47:32 0° 283° (WNW) 3,175 7.7 -19.2°
Reaches altitude 10° 21:50:02 10° 278° (W) 2,252 6.6 -19.5°
Maximum altitude 21:55:09 49° 205° (SSW) 948 3.8 -20.3°
Enters shadow 21:56:23 41° 164° (SSE) 1,068 3.8 -20.4°
